Home > Weather > Mexicali > Past weeks

Flag for Mexico Past Weather in Mexicali, Baja California, Mexico — Yesterday and Last 2 Weeks

Now
99 °F

Overcast.


Feels Like: 106 °F
Forecast: 86 / 112 °F
Wind: 16 mph from Southeast

Location: Imperial County Airport

Current Time: Jul 23, 2016 at 9:56:09 PM

Latest Report: Jul 23, 2016 at 8:53 PM


Visibility: 10 mi

Pressure: 29.65 "Hg

Humidity: 38%

Dew Point: 69 °F

Location of MexicaliLocation

Past Weather in Mexicali — Graph

°F

Mexicali Temperature Yesterday

Maximum temperature yesterday: 116 °F (at 2:53 PM)
Minimum temperature yesterday: 87 °F (at 5:53 AM)
Average temperature yesterday: 102 °F

High & Low Weather Summary for the Past Weeks

 TemperatureHumidityPressure
High116 °F (Jul 21, 2:53 PM)68% (Jul 18, 3:53 AM)29.91 "Hg (Jul 18, 3:53 AM)
Low73 °F (Jul 12, 4:53 AM)3% (Jul 11, 2:53 PM)29.61 "Hg (Jul 11, 5:53 PM)
Average97 °F24%29.76 "Hg
* Reported Jul 8 8:53 PM — Jul 23 8:53 PM, Mexicali, Weather by CustomWeather, © 2016

Note: Actual official high and low records may vary slightly from our data, if they occured in-between our weather recording intervals... More about our weather records

Advertising

Mexicali Weather History for the Previous 24 Hours

Scroll right to see more
 ConditionsComfort  
Time TempWeatherWind HumidityBarometerVisibility
8:53 PM
Sat, Jul 23
99 °FOvercast.16 mph38%29.65 "Hg10 mi
7:53 PM102 °FOvercast.13 mph31%29.63 "Hg10 mi
7:02 PM106 °FPartly sunny.16 mph26%29.62 "Hg8 mi
6:53 PM106 °FPartly sunny.17 mph26%29.62 "Hg7 mi
5:53 PM109 °FOvercast.21 mph24%29.63 "Hg6 mi
4:53 PM112 °FOvercast.24 mph23%29.64 "Hg5 mi
3:53 PM116 °FSunny.17 mph15%29.65 "Hg10 mi
2:53 PM113 °FSunny.10 mph21%29.68 "Hg10 mi
1:53 PM112 °FPassing clouds.8 mph25%29.72 "Hg8 mi
12:53 PM107 °FPassing clouds.8 mph27%29.74 "Hg10 mi
11:53 AM104 °FMostly cloudy.3 mph36%29.77 "Hg7 mi
10:53 AM100 °FOvercast.5 mph43%29.78 "Hg5 mi
9:53 AM97 °FOvercast.9 mph49%29.79 "Hg3 mi
8:53 AM96 °FPartly sunny.13 mph51%29.80 "Hg6 mi
7:53 AM93 °FSunny.7 mph56%29.78 "Hg10 mi
6:53 AM92 °FSunny.17 mph58%29.77 "Hg8 mi
5:53 AM89 °FClear.21 mph53%29.75 "Hg10 mi
4:53 AM86 °FClear.8 mph55%29.70 "Hg10 mi
3:53 AM88 °FClear.9 mph57%29.69 "Hg10 mi
2:53 AM87 °FWarm.6 mph57%29.70 "Hg10 mi
1:53 AM88 °FClear.3 mph43%29.70 "Hg10 mi
12:53 AM89 °FClear.3 mph43%29.71 "Hg10 mi
11:53 PM
Fri, Jul 22
95 °FClear.6 mph35%29.71 "Hg10 mi
10:53 PM98 °FClear.8 mph32%29.71 "Hg10 mi
9:53 PM101 °FExtremely hot.8 mph28%29.72 "Hg10 mi
Weather by CustomWeather, © 2016

See weather overviewHow to use our weather pages